Regional Weather Roundup
Issued by NWS Newport/Morehead, NC

Current Version | Previous Version | Text Only | Print | Product List | Glossary Off
Versions: 1 2 3 4 5 6 7 8 9 10 11 12 13 14 15 16 17 18 19 20 21 22 23 24 25 26 27 28 29 30 31 32 33 34 35 36 37 38 39 40 41 42 43 44 45 46 47 48 49 50
000 ASUS42 KMHX 231225 RWRMHX WEATHER ROUNDUP FOR EASTERN NORTH CAROLINA NATIONAL WEATHER SERVICE NEWPORT/MOREHEAD CITY NC 700 AM EST MON JAN 23 2017 NOTE: "FAIR" INDICATES FEW OR NO CLOUDS BELOW 12,000 FEET WITH NO SIGNIFICANT WEATHER AND/OR OBSTRUCTIONS TO VISIBILITY NCZ015>017-031-032-045>047-102-103-231300- NORTH COAST CITY SKY/WX TMP DP RH WIND PRES REMARKS EDENTON CLOUDY 57 55 95 E12 29.26F ELIZABETH CITY CLOUDY 58 57 97 E14 29.28F KITTY HAWK NOT AVBL MANTEO LGT RAIN 58 58 100 SW3 29.30S $$ NCZ045>047-081-094-103-104-231300- CENTRAL COAST CITY SKY/WX TMP DP RH WIND PRES REMARKS FRISCO LGT RAIN 63 60 90 W7 29.27F FOG $$ NCZ095-097-098-100-101-231300- SOUTHERN COAST CITY SKY/WX TMP DP RH WIND PRES REMARKS BEAUFORT MOCLDY 60 57 89 SW15 29.28R CEDAR ISLAND NOT AVBL JACKSONVILLE CLEAR 59 58 96 SW13 29.26R PINEY ISLAND MOSUNNY N/A N/A N/A SW10 29.27R WILMINGTON CLEAR 54 50 86 SW10 29.31R $$ NCZ011>013-027>030-043-044-078>080-089-090>093-098-231300- COASTAL PLAIN CITY SKY/WX TMP DP RH WIND PRES REMARKS AHOSKIE LGT RAIN 53 52 97 E3 29.26S CLINTON PTCLDY 55 53 94 SW7 29.28R ELIZABETHTOWN CLEAR 52 49 90 SW7 29.29S GOLDSBORO CLOUDY 57 57 100 CALM 29.23R GREENVILLE CLOUDY 54 54 100 E6 29.29F HAVELOCK CLOUDY 58 56 93 S12 29.28R KENANSVILLE PTCLDY 55 54 94 SW10 29.27R KINSTON CLOUDY 57 57 100 SE3 29.25S NEW BERN PTCLDY 56 55 97 S7 29.26F RICHLANDS PTCLDY 57 56 96 SW9 29.27R ROCKY MOUNT CLOUDY 53 53 100 VRB6 29.24F WASHINGTON CLOUDY 54 53 98 CALM N/A WHITEVILLE CLEAR 51 48 90 SW3 29.30R $$ AMZ130-135-150-152-154-156-158-170-250-252-270-ANZ085-086-088-633-658-670-231300- MARINE OBSERVATIONS STATION/POSITION TIME TEMP WIND PRES WAVE SWELL AIR SEA DIR/SP/G HT/PER HT/PER (UTC) (F) (DEG/KT/KT) (MB) (FT/S) (FT/S) CHESAPEAKE LIGHT NOT AVBL 64 E VA BEACH 1150 62 56 80/ 16/ 19 993.2 5/14 3/14 DUCK 1200 55 46 90/ 21/ 22 991.4 2 E DUCK 1200 46 N/A 3/13 2/13 OREGON INLET 1200 56 50 90/ 9/ 16 991.4 13E OREGON INLT NOT AVBL HATTERAS CG 1200 63 55 220/ 7/ 10 990.8 DIAMOND BUOY 1150 72 72 220/ 23/ 31 990.5 9/ 7 3/12 CAPE LOOKOUT 1200 60 220/ 11/ 15 991.4 BEAUFORT LAB 1200 59 52 220/ 8/ 12 990.6 30 SE NEW RVR IN 1208 60 70 250/ 27/ 35 991.7 30 SE NEW RVR IN 1213 69 N/A 9/ 8 2/13 27 SE WRIGHTSVLE 1208 60 67 230/ 19/ 29 990.5 5 SE WRIGHTSVLE 1208 55 240/ 16/ 21 992.4 225 S CAPE HAT 1150 68 71 180/ 21/ 25 996.6 16/10 11/10 41 SE CHARLESTON 1150 64 67 230/ 19/ 25 992.2 9/ 8 5/10 $$

USA.gov is the U.S. government's official web portal to all federal, state and local government web resources and services.